Regional Weather Roundup
Issued by NWS

Home | Current Version | Previous Version | Text Only | Print | Product List | Glossary On
Versions: 1 2 3 4 5 6 7 8 9 10 11 12 13 14 15 16 17 18 19 20 21 22 23 24 25 26 27 28 29 30 31 32 33 34 35 36 37 38 39 40 41 42 43 44 45 46 47 48 49 50
824
ASUS46 KPQR 231210
RWROR

OREGON REGIONAL WEATHER ROUNDUP
NATIONAL WEATHER SERVICE PORTLAND OR
400 AM PST THU FEB 23 2017

NOTE: "FAIR" INDICATES FEW OR NO CLOUDS BELOW 12,000 FEET WITH
NO SIGNIFICANT WEATHER AND/OR OBSTRUCTIONS TO VISIBILITY.

ORZ001>013-231300-
NORTHWEST OREGON


CITY           SKY/WX    TMP DP  RH WIND       PRES   REMARKS
ASTORIA        CLEAR     30  27  88 SE3       30.23S
6HR MIN TEMP:  29; 6HR MAX TEMP:  33;

PORTLAND       CLOUDY    35  33  92 NE3       30.24S
6HR MIN TEMP:  34; 6HR MAX TEMP:  37;

VANCOUVER WA   MOCLDY    32  32 100 CALM      30.24R
6HR MIN TEMP:  31; 6HR MAX TEMP:  38;

SCAPPOOSE      CLEAR     29  29 100 W3        30.23S
6HR MIN TEMP:  27; 6HR MAX TEMP:  32;

HILLSBORO      FOG       31  29  92 CALM      30.23S VSB 1/4
6HR MIN TEMP:  30; 6HR MAX TEMP:  33;

AURORA         CLOUDY    35  33  92 CALM      30.24S FOG
6HR MIN TEMP:  35; 6HR MAX TEMP:  39;

MCMINNVILLE    FOG       34  33  96 CALM      30.25S VSB 1/4
6HR MIN TEMP:  33; 6HR MAX TEMP:  35;

SALEM          CLOUDY    34  32  92 CALM      30.23S FOG
6HR MIN TEMP:  33; 6HR MAX TEMP:  36;

CORVALLIS        N/A     34  30  86 W5        30.25R WCI  30
EUGENE         MOCLDY    33  33 100 CALM      30.25R
6HR MIN TEMP:  33; 6HR MAX TEMP:  37;

$$

ORZ021-028-231300-
SOUTHWEST OREGON


CITY           SKY/WX    TMP DP  RH WIND       PRES   REMARKS
NORTH BEND     MOCLDY    36  36 100 SE7       30.28R WCI  30
6HR MIN TEMP:  36; 6HR MAX TEMP:  39; 6HR PCP:  0.05;

BROOKINGS      MOCLDY    33  33 100 E5        30.24F WCI  29
ROSEBURG       CLOUDY    35  34  96 CALM      30.24S
6HR MIN TEMP:  34; 6HR MAX TEMP:  36;

SEXTON SUMMIT  CLOUDY    24  22  91 NW3       30.07R FOG
6HR MIN TEMP:  23; 6HR MAX TEMP:  26; 6HR PCP:  0.01;

MEDFORD        PTCLDY    33  31  92 CALM      30.19R
6HR MIN TEMP:  32; 6HR MAX TEMP:  36; 6HR PCP:  0.01;

$$

ORZ014>016-041-231300-
COLUMBIA GORGE


CITY           SKY/WX    TMP DP  RH WIND       PRES   REMARKS
TROUTDALE      CLOUDY    38  35  89 CALM      30.24R
6HR MIN TEMP:  37; 6HR MAX TEMP:  40; 6HR PCP:  0.01;

THE DALLES     PTCLDY    37  30  75 NW12      30.17S WCI  29
6HR MIN TEMP:  36; 6HR MAX TEMP:  40;

$$

ORZ029>031-041-044-049-050-061>064-502-503-505>511-231300-
EASTERN OREGON


CITY           SKY/WX    TMP DP  RH WIND       PRES   REMARKS
REDMOND        CLOUDY    27  20  75 W5        30.06S WCI  22
6HR MIN TEMP:  23; 6HR MAX TEMP:  28;

BEND           CLOUDY    27  21  80 W3        30.06S
PRINEVILLE     CLOUDY    28  23  80 NW6       30.06S WCI  22
KLAMATH FALLS  CLOUDY    26  23  88 NW5       30.02S WCI  20
6HR MIN TEMP:  25; 6HR MAX TEMP:  28; 6HR PCP: TRACE;

LAKEVIEW       CLOUDY    19  14  79 W5        29.99S WCI  13
HERMISTON      PTCLDY    27  26  96 CALM      30.12R
6HR MIN TEMP:  26; 6HR MAX TEMP:  32;

PENDLETON      MOCLDY    30  27  88 NW5       30.09R WCI  25
6HR MIN TEMP:  29; 6HR MAX TEMP:  34;

JOHN DAY       CLOUDY    28  23  82 W10       29.99R WCI  18
MEACHAM        CLOUDY    26  21  81 CALM      29.98R
6HR MIN TEMP:  25; 6HR MAX TEMP:  27; 6HR PCP:  0.01;

LA GRANDE      MOCLDY    30  23  74 N6        29.99S WCI  24
6HR MIN TEMP:  28; 6HR MAX TEMP:  34;

BAKER CITY     CLOUDY    28  23  81 NW20G25   29.94S WCI  15
6HR MIN TEMP:  28; 6HR MAX TEMP:  30;

BURNS          CLOUDY    22  14  71 W15       29.93S WCI   9
6HR MIN TEMP:  20; 6HR MAX TEMP:  23;

ROME             N/A     20  14  77 S5        29.88S WCI  13
6HR MIN TEMP:  11; 6HR MAX TEMP:  24;

ONTARIO        MOCLDY    33  24  69 NW24      29.91R WCI  20
6HR MIN TEMP:  33; 6HR MAX TEMP:  35;

$$




USA.gov is the U.S. government's official web portal to all federal, state and local government web resources and services.